This is the latest recevied weather packets stored in our database for station/object DH0DM-13. If no packets are shown the sender has not sent any weather packets the latest 10 day(s).
| Time | Temp. | Humidity | Pressure | Rain* | Wind** | Luminosity | Snow |
|---|---|---|---|---|---|---|---|
| 1787679497 | 18.33° C | 58% | 990.5 hPa | 0 mm | 6.26 m/s, 92° | - | - |
| 1787678896 | 18.89° C | 57% | 990.4 hPa | 0 mm | 13.86 m/s, 63° | - | - |
| 1787678295 | 18.89° C | 56% | 990.1 hPa | 0 mm | 15.65 m/s, 61° | - | - |
| 1787677694 | 19.44° C | 55% | 990.1 hPa | 0 mm | 7.6 m/s, 59° | - | - |
| 1787677093 | 19.44° C | 55% | 990.2 hPa | 0 mm | 10.28 m/s, 29° | - | - |
| 1787676492 | 20° C | 53% | 990.2 hPa | 0 mm | 9.39 m/s, 22° | - | - |
| 1787675891 | 20.56° C | 50% | 990.2 hPa | 0 mm | 9.39 m/s, 105° | - | - |
| 1787675288 | 20.56° C | 49% | 990.1 hPa | 0 mm | 9.83 m/s, 76° | - | - |
| 1787674688 | 20.56° C | 49% | 990.3 hPa | 0 mm | 4.92 m/s, 91° | - | - |
| 1787674087 | 20.56° C | 49% | 990.3 hPa | 0 mm | 13.86 m/s, 83° | - | - |
| 1787673486 | 21.11° C | 48% | 990.1 hPa | 0 mm | 16.99 m/s, 84° | - | - |
| 1787672885 | 21.11° C | 48% | 990.1 hPa | 0 mm | 15.65 m/s, 97° | - | - |
| 1787672284 | 21.11° C | 48% | 990.3 hPa | 0 mm | 10.73 m/s, 70° | - | - |
| 1787671683 | 21.11° C | 47% | 990.1 hPa | 0 mm | 12.52 m/s, 105° | - | - |
| 1787671082 | 21.11° C | 48% | 990.3 hPa | 0 mm | 8.05 m/s, 95° | - | - |
| 1787670481 | 21.67° C | 46% | 990 hPa | 0 mm | 11.18 m/s, 49° | - | - |
| 1787669881 | 21.67° C | 47% | 990 hPa | 0 mm | 8.49 m/s, 79° | - | - |
| 1787669280 | 22.22° C | 45% | 989.9 hPa | 0 mm | 15.65 m/s, 98° | - | - |
| 1787668679 | 22.22° C | 44% | 989.9 hPa | 0 mm | 14.75 m/s, 104° | - | - |
| 1787668078 | 22.22° C | 43% | 989.9 hPa | 0 mm | 10.73 m/s, 90° | - | - |
| 1787667477 | 22.78° C | 43% | 989.9 hPa | 0 mm | 15.65 m/s, 75° | - | - |
| 1787666876 | 22.22° C | 44% | 989.8 hPa | 0 mm | 15.65 m/s, 160° | - | - |
| 1787666275 | 22.22° C | 45% | 989.9 hPa | 0 mm | 21.46 m/s, 74° | - | - |
| 1787665674 | 22.78° C | 44% | 989.6 hPa | 0 mm | 11.18 m/s, 94° | - | - |
| 1787665073 | 23.33° C | 45% | 989.7 hPa | 0 mm | 4.02 m/s, 74° | - | - |
* Rain since midnight (hover to see other rain measurements)
** Current wind speed in m/s (hover to see current wind gust speed)